Location: Prairie State College
(41.5244°N, 87.6382°W)
Time: 14:22:49
(UTC-05:00)

ISS - All Passes

Search period start: 28 June 2017 00:00
Search period end: 08 July 2017 00:00
Orbit: 401 x 408 km, 51.6° (Epoch: 29 June)

Date Brightness Start Highest point End Pass type
(mag) Time Alt. Az. Time Alt. Az. Time Alt. Az.
28 Jun - 06:44:05 10° SSE 06:45:57 14° SE 06:47:49 10° E daylight
28 Jun - 08:18:49 10° WSW 08:22:04 65° NNW 08:25:21 10° NE daylight
28 Jun - 09:56:41 10° WNW 09:59:03 18° NNW 10:01:24 10° NNE daylight
28 Jun - 11:34:31 10° NNW 11:36:29 15° N 11:38:28 10° NE daylight
28 Jun - 13:10:41 10° NW 13:13:43 33° NNE 13:16:45 10° E daylight
28 Jun - 14:47:11 10° WNW 14:50:12 33° SW 14:53:12 10° SSE daylight
29 Jun - 07:26:39 10° SW 07:29:53 67° SE 07:33:09 10° ENE daylight
29 Jun - 09:03:56 10° WNW 09:06:37 23° NNW 09:09:20 10° NE daylight
29 Jun - 10:42:08 10° NW 10:44:00 14° N 10:45:51 10° NE daylight
29 Jun - 12:18:38 10° NW 12:21:21 23° NNE 12:24:05 10° ENE daylight
29 Jun - 13:54:49 10° WNW 13:58:06 66° SW 14:01:21 10° SE daylight
30 Jun - 06:34:47 10° SSW 06:37:46 33° SE 06:40:47 10° ENE daylight
30 Jun - 08:11:15 10° W 08:14:15 32° NNW 08:17:16 10° NE daylight
30 Jun - 09:49:32 10° NW 09:51:29 15° N 09:53:27 10° NNE daylight
30 Jun - 11:26:33 10° NNW 11:28:56 18° NNE 11:31:19 10° ENE daylight
30 Jun - 13:02:37 10° NW 13:05:53 66° NNE 13:09:10 10° ESE daylight
30 Jun - 14:40:09 10° W 14:42:01 14° SW 14:43:52 10° SSW daylight
01 Jul - 05:43:26 10° S 05:45:44 18° SE 05:48:02 10° E daylight
01 Jul - 07:18:44 10° WSW 07:21:56 53° NNW 07:25:10 10° NE daylight
01 Jul - 08:56:45 10° NW 08:58:59 17° NNW 09:01:13 10° NNE daylight
01 Jul - 10:34:24 10° NNW 10:36:27 15° N 10:38:30 10° NE daylight
01 Jul - 12:10:29 10° NW 12:13:36 38° NNE 12:16:44 10° E daylight
01 Jul - 13:47:10 10° WNW 13:49:59 26° SW 13:52:48 10° SSE daylight
02 Jul - 06:26:26 10° SW 06:29:41 84° SE 06:32:58 10° NE daylight
02 Jul - 08:03:56 10° WNW 08:06:30 21° NNW 08:09:05 10° NNE daylight
02 Jul - 09:42:03 10° NNW 09:43:54 14° N 09:45:47 10° NE daylight
02 Jul - 11:18:24 10° NW 11:21:14 26° NNE 11:24:04 10° E daylight
02 Jul - 12:54:39 10° WNW 12:57:52 51° SW 13:01:05 10° SE daylight
03 Jul - 05:34:24 10° SSW 05:37:30 42° SE 05:40:38 10° ENE daylight
03 Jul - 07:11:11 10° W 07:14:05 28° NNW 07:17:00 10° NE daylight
03 Jul - 08:49:28 10° NW 08:51:22 14° N 08:53:16 10° NNE daylight
03 Jul - 10:26:17 10° NNW 10:28:47 20° NNE 10:31:17 10° ENE daylight
03 Jul - 12:02:22 10° NW 12:05:40 83° NE 12:08:57 10° ESE daylight
03 Jul - 13:40:36 10° WSW 13:41:41 11° SW 13:42:47 10° SSW daylight
04 Jul - 04:42:47 10° S 04:45:24 22° SE 04:48:01 10° E visible
04 Jul - 06:18:34 10° WSW 06:21:42 43° NNW 06:24:52 10° NE daylight
04 Jul - 07:56:42 10° NW 07:58:49 16° N 08:00:56 10° NNE daylight
04 Jul - 09:34:07 10° NNW 09:36:16 16° N 09:38:26 10° NE daylight
04 Jul - 11:10:11 10° NW 11:13:22 46° NNE 11:16:33 10° ESE daylight
04 Jul - 12:47:05 10° W 12:49:39 21° SW 12:52:13 10° S daylight
05 Jul - 03:52:04 10° SSE 03:53:21 12° SE 03:54:39 10° ESE visible
05 Jul - 05:26:08 10° WSW 05:29:23 78° NW 05:32:40 10° NE daylight
05 Jul - 07:03:51 10° WNW 07:06:18 19° NNW 07:08:44 10° NNE daylight
05 Jul - 08:41:49 10° NNW 08:43:43 14° N 08:45:37 10° NE daylight
05 Jul - 10:18:02 10° NW 10:20:59 29° NNE 10:23:55 10° E daylight
05 Jul - 11:54:25 10° WNW 11:57:32 40° SW 12:00:38 10° SSE daylight
06 Jul - 04:33:58 10° SW 04:37:09 54° SE 04:40:21 10° ENE visible
06 Jul - 06:11:02 10° W 06:13:48 25° NNW 06:16:35 10° NE daylight
06 Jul - 07:49:17 10° NW 07:51:08 14° N 07:52:59 10° NNE daylight
06 Jul - 09:25:54 10° NW 09:28:31 21° NNE 09:31:08 10° ENE daylight
06 Jul - 11:02:01 10° WNW 11:05:19 79° SW 11:08:35 10° SE daylight
07 Jul - 03:42:08 10° SSW 03:44:58 28° SE 03:47:49 10° ENE visible
07 Jul - 05:18:18 10° W 05:21:22 37° NNW 05:24:27 10° NE daylight
07 Jul - 06:56:32 10° NW 06:58:33 15° N 07:00:33 10° NNE daylight
07 Jul - 08:33:44 10° NNW 08:35:59 17° NNE 08:38:14 10° NE daylight
07 Jul - 10:09:45 10° NW 10:13:00 56° NNE 10:16:15 10° ESE daylight
07 Jul - 11:46:58 10° W 11:49:12 17° SW 11:51:25 10° S daylight
